DAL535 KATL-KMCO

Flight info

Callsign DAL535
Flight time 1h 5m
Altitude 33000
Route SMLTZ3 WALET ZJAYX GRNCH5
Aircraft A321/M-SDE3FGHIRWY/LB1

Departure

Time 2026-05-04 15:46
Airport Hartsfield Jackson Atlanta International Airport (KATL)

Arrival

Time 2026-05-04 16:51
Airport Orlando International Airport (KMCO)
Time Latitude Longitude Altitude Speed Heading
2026-05-04 15:26 33.64056 -84.43869 1006 ft 0 kts 270°
2026-05-04 15:35 33.64056 -84.43859 1006 ft 4 kts 267°
2026-05-04 15:35 33.64057 -84.43827 1006 ft 4 kts 259°
2026-05-04 15:35 33.64066 -84.43798 1006 ft 4 kts 223°
2026-05-04 15:36 33.64085 -84.43787 1006 ft 0 kts 180°
2026-05-04 15:39 33.64053 -84.43787 1006 ft 9 kts 180°
2026-05-04 15:39 33.63815 -84.43787 1006 ft 20 kts 179°
2026-05-04 15:40 33.63682 -84.43765 1006 ft 19 kts 139°
2026-05-04 15:40 33.63664 -84.43620 1006 ft 18 kts 90°
2026-05-04 15:40 33.63663 -84.43472 1006 ft 18 kts 91°
2026-05-04 15:40 33.63664 -84.43326 1006 ft 17 kts 89°
2026-05-04 15:41 33.63664 -84.43185 1006 ft 17 kts 90°
2026-05-04 15:41 33.63664 -84.43048 1006 ft 16 kts 90°
2026-05-04 15:41 33.63664 -84.42913 1006 ft 17 kts 90°
2026-05-04 15:41 33.63658 -84.42730 1007 ft 25 kts 96°
2026-05-04 15:42 33.63656 -84.42530 1007 ft 24 kts 89°
2026-05-04 15:42 33.63655 -84.42334 1007 ft 23 kts 90°
2026-05-04 15:42 33.63631 -84.42153 1007 ft 22 kts 118°
2026-05-04 15:42 33.63581 -84.41991 1007 ft 21 kts 91°
2026-05-04 15:43 33.63582 -84.41821 1006 ft 20 kts 89°
2026-05-04 15:43 33.63581 -84.41657 1006 ft 19 kts 90°
2026-05-04 15:43 33.63580 -84.41499 1005 ft 19 kts 90°
2026-05-04 15:43 33.63581 -84.41347 1005 ft 18 kts 90°
2026-05-04 15:44 33.63581 -84.41203 1006 ft 17 kts 90°
2026-05-04 15:44 33.63581 -84.41069 1006 ft 16 kts 89°
2026-05-04 15:44 33.63576 -84.40945 1006 ft 14 kts 108°
2026-05-04 15:44 33.63498 -84.40909 1007 ft 12 kts 186°
2026-05-04 15:45 33.63471 -84.40952 1007 ft 0 kts 266°
2026-05-04 15:45 33.63470 -84.41099 1006 ft 52 kts 270°
2026-05-04 15:45 33.63469 -84.41825 1007 ft 116 kts 270°
2026-05-04 15:46 33.63472 -84.42989 1008 ft 161 kts 270°
2026-05-04 15:46 33.63461 -84.44393 1475 ft 167 kts 268°
2026-05-04 15:46 33.63434 -84.45770 2057 ft 169 kts 268°
2026-05-04 15:46 33.63422 -84.47188 2652 ft 170 kts 267°
2026-05-04 15:47 33.63420 -84.48638 3047 ft 180 kts 270°
2026-05-04 15:47 33.63426 -84.50231 3229 ft 202 kts 270°
2026-05-04 15:47 33.63434 -84.52020 3389 ft 227 kts 271°
2026-05-04 15:47 33.63439 -84.54050 3751 ft 251 kts 270°
2026-05-04 15:48 33.63440 -84.56176 4487 ft 259 kts 270°
2026-05-04 15:48 33.63443 -84.58353 5366 ft 262 kts 270°
2026-05-04 15:48 33.63379 -84.62701 6882 ft 273 kts 259°
2026-05-04 15:49 33.62810 -84.64883 7649 ft 276 kts 242°
2026-05-04 15:49 33.61678 -84.66747 8406 ft 280 kts 223°
2026-05-04 15:49 33.60086 -84.68096 9197 ft 282 kts 207°
2026-05-04 15:49 33.58281 -84.69024 10016 ft 284 kts 194°
2026-05-04 15:50 33.56323 -84.69375 10721 ft 287 kts 180°
2026-05-04 15:50 33.54319 -84.69128 11395 ft 293 kts 171°
2026-05-04 15:50 33.52295 -84.68733 12104 ft 298 kts 172°
2026-05-04 15:50 33.50220 -84.68337 12785 ft 304 kts 172°
2026-05-04 15:51 33.48115 -84.67939 13482 ft 309 kts 173°
2026-05-04 15:51 33.45969 -84.67536 14152 ft 315 kts 173°
2026-05-04 15:51 33.43797 -84.67069 14773 ft 321 kts 167°
2026-05-04 15:51 33.41715 -84.66040 15379 ft 330 kts 152°
2026-05-04 15:52 33.39828 -84.64314 15546 ft 354 kts 136°
2026-05-04 15:52 33.38042 -84.62152 15708 ft 374 kts 136°
2026-05-04 15:52 33.36183 -84.59926 16156 ft 383 kts 136°
2026-05-04 15:52 33.34280 -84.57661 16739 ft 388 kts 136°
2026-05-04 15:53 33.32348 -84.55372 17325 ft 394 kts 137°
2026-05-04 15:53 33.30364 -84.53030 17924 ft 399 kts 137°
2026-05-04 15:53 33.28395 -84.50713 18489 ft 404 kts 137°
2026-05-04 15:53 33.26308 -84.48259 18996 ft 409 kts 137°
2026-05-04 15:54 33.24319 -84.45920 19522 ft 413 kts 137°
2026-05-04 15:54 33.22229 -84.43460 20046 ft 417 kts 137°
2026-05-04 15:54 33.20163 -84.41031 20552 ft 421 kts 137°
2026-05-04 15:54 33.18065 -84.38568 21059 ft 424 kts 137°
2026-05-04 15:55 33.15948 -84.36089 21563 ft 428 kts 138°
2026-05-04 15:55 33.13786 -84.33562 22063 ft 432 kts 138°
2026-05-04 15:55 33.11632 -84.31042 22573 ft 436 kts 138°
2026-05-04 15:55 33.09460 -84.28502 23054 ft 439 kts 138°
2026-05-04 15:56 33.07210 -84.25871 23559 ft 442 kts 138°
2026-05-04 15:56 33.04959 -84.23241 23991 ft 446 kts 139°
2026-05-04 15:56 33.02690 -84.20587 24426 ft 449 kts 139°
2026-05-04 15:56 33.00241 -84.18208 24806 ft 446 kts 149°
2026-05-04 15:57 32.97573 -84.16375 25198 ft 443 kts 161°
2026-05-04 15:57 32.95610 -84.15468 25474 ft 440 kts 167°
2026-05-04 15:57 32.92651 -84.14285 25884 ft 443 kts 167°
2026-05-04 15:57 32.89644 -84.13069 26311 ft 445 kts 166°
2026-05-04 15:58 32.86625 -84.11831 26728 ft 448 kts 166°
2026-05-04 15:58 32.83635 -84.10594 27126 ft 450 kts 166°
2026-05-04 15:58 32.80667 -84.09364 27513 ft 453 kts 166°
2026-05-04 15:58 32.77684 -84.08132 27893 ft 455 kts 166°
2026-05-04 15:59 32.74685 -84.06897 28241 ft 457 kts 167°
2026-05-04 15:59 32.71633 -84.05641 28641 ft 459 kts 167°
2026-05-04 15:59 32.68607 -84.04401 29030 ft 461 kts 167°
2026-05-04 15:59 32.65535 -84.03143 29392 ft 463 kts 167°
2026-05-04 16:00 32.62523 -84.01910 29751 ft 465 kts 167°
2026-05-04 16:00 32.59415 -84.00641 30093 ft 467 kts 167°
2026-05-04 16:00 32.56334 -83.99384 30409 ft 469 kts 167°
2026-05-04 16:00 32.53238 -83.98120 30687 ft 472 kts 167°
2026-05-04 16:01 32.50133 -83.96853 30959 ft 474 kts 167°
2026-05-04 16:01 32.46964 -83.95563 31220 ft 476 kts 168°
2026-05-04 16:01 32.43824 -83.94285 31495 ft 478 kts 168°
2026-05-04 16:01 32.40636 -83.92983 31881 ft 478 kts 168°
2026-05-04 16:02 32.37530 -83.91526 32259 ft 484 kts 160°
2026-05-04 16:02 32.34586 -83.89531 32663 ft 491 kts 151°
2026-05-04 16:02 32.29014 -83.84607 33150 ft 490 kts 149°
2026-05-04 16:03 32.26338 -83.82221 33158 ft 478 kts 149°
2026-05-04 16:03 32.21046 -83.77539 33148 ft 473 kts 149°
2026-05-04 16:04 32.15651 -83.72802 33192 ft 477 kts 150°
2026-05-04 16:04 32.07597 -83.65697 33150 ft 479 kts 149°
2026-05-04 16:05 32.02267 -83.60994 33149 ft 479 kts 150°
2026-05-04 16:05 31.96948 -83.56311 32975 ft 477 kts 150°
2026-05-04 16:06 31.94292 -83.53977 32327 ft 477 kts 149°
2026-05-04 16:06 31.87249 -83.47798 30401 ft 468 kts 149°
2026-05-04 16:07 31.83741 -83.44732 30122 ft 470 kts 149°
2026-05-04 16:08 31.74116 -83.36319 30164 ft 469 kts 149°
2026-05-04 16:09 31.60611 -83.25343 30111 ft 459 kts 162°
2026-05-04 16:10 31.48937 -83.18917 30156 ft 463 kts 161°
2026-05-04 16:11 31.37336 -83.12385 30149 ft 461 kts 161°
2026-05-04 16:12 31.19794 -83.02648 30147 ft 464 kts 161°
2026-05-04 16:13 31.08136 -82.96154 30163 ft 464 kts 161°
2026-05-04 16:14 30.96281 -82.89612 30167 ft 468 kts 161°
2026-05-04 16:15 30.87512 -82.84169 30182 ft 480 kts 148°
2026-05-04 16:16 30.82240 -82.79385 30185 ft 480 kts 148°
2026-05-04 16:17 30.68894 -82.67371 30207 ft 482 kts 148°
2026-05-04 16:18 30.59147 -82.58597 30206 ft 482 kts 148°
2026-05-04 16:19 30.45805 -82.46640 30226 ft 482 kts 148°
2026-05-04 16:20 30.32538 -82.34777 30225 ft 477 kts 148°
2026-05-04 16:22 30.19011 -82.23916 30196 ft 462 kts 166°
2026-05-04 16:22 30.09697 -82.21645 30151 ft 452 kts 178°
2026-05-04 16:23 30.00600 -82.19825 29303 ft 437 kts 178°
2026-05-04 16:24 29.88692 -82.17466 28225 ft 429 kts 178°
2026-05-04 16:25 29.82825 -82.16302 27677 ft 427 kts 178°
2026-05-04 16:26 29.71175 -82.13976 26668 ft 420 kts 177°
2026-05-04 16:26 29.62558 -82.12269 25927 ft 414 kts 177°
2026-05-04 16:27 29.56904 -82.11140 25432 ft 411 kts 177°
2026-05-04 16:28 29.48485 -82.09472 24709 ft 407 kts 176°
2026-05-04 16:28 29.40126 -82.07818 24018 ft 402 kts 176°
2026-05-04 16:29 29.29294 -82.05059 22738 ft 404 kts 160°
2026-05-04 16:30 29.21826 -82.00354 21267 ft 398 kts 155°
2026-05-04 16:31 29.16978 -81.97306 20294 ft 392 kts 155°
2026-05-04 16:31 29.09845 -81.92848 18862 ft 381 kts 155°
2026-05-04 16:32 29.03664 -81.87407 17309 ft 372 kts 138°
2026-05-04 16:33 29.00573 -81.84083 16583 ft 368 kts 140°
2026-05-04 16:33 28.97013 -81.79741 15625 ft 366 kts 124°
2026-05-04 16:34 28.93856 -81.75145 14664 ft 363 kts 130°
2026-05-04 16:34 28.92296 -81.72878 14417 ft 356 kts 129°
2026-05-04 16:35 28.87826 -81.66207 13678 ft 349 kts 129°
2026-05-04 16:35 28.83439 -81.59749 12920 ft 343 kts 129°
2026-05-04 16:36 28.81913 -81.57517 12669 ft 338 kts 129°
2026-05-04 16:36 28.78765 -81.53779 12145 ft 320 kts 148°
2026-05-04 16:37 28.74939 -81.51429 11652 ft 308 kts 154°
2026-05-04 16:37 28.73045 -81.50294 11406 ft 306 kts 154°
2026-05-04 16:37 28.69281 -81.48031 10928 ft 304 kts 154°
2026-05-04 16:38 28.65540 -81.45783 10285 ft 303 kts 155°
2026-05-04 16:39 28.59898 -81.42755 9367 ft 284 kts 171°
2026-05-04 16:39 28.56004 -81.42348 9064 ft 260 kts 181°
2026-05-04 16:40 28.52496 -81.42327 8494 ft 252 kts 183°
2026-05-04 16:40 28.48986 -81.42361 7842 ft 250 kts 183°
2026-05-04 16:41 28.45522 -81.42409 7212 ft 249 kts 182°
2026-05-04 16:41 28.40305 -81.42440 6165 ft 246 kts 179°
2026-05-04 16:42 28.35252 -81.42426 5152 ft 231 kts 178°
2026-05-04 16:43 28.32476 -81.42367 4408 ft 231 kts 175°
2026-05-04 16:43 28.28810 -81.42267 3552 ft 230 kts 177°
2026-05-04 16:43 28.27764 -81.42255 3338 ft 229 kts 176°
2026-05-04 16:44 28.21841 -81.40777 3023 ft 214 kts 115°
2026-05-04 16:45 28.21567 -81.37665 3014 ft 185 kts 84°
2026-05-04 16:46 28.21922 -81.33355 3023 ft 177 kts 83°
2026-05-04 16:46 28.22756 -81.30685 3013 ft 177 kts 50°
2026-05-04 16:47 28.24724 -81.29430 3016 ft 180 kts 11°
2026-05-04 16:47 28.27360 -81.29362 2721 ft 180 kts
2026-05-04 16:48 28.30878 -81.29445 2046 ft 145 kts
2026-05-04 16:48 28.31852 -81.29465 1807 ft 137 kts
2026-05-04 16:49 28.33721 -81.29485 1498 ft 133 kts
2026-05-04 16:49 28.35607 -81.29508 1150 ft 136 kts 357°
2026-05-04 16:50 28.37471 -81.29525 772 ft 133 kts
2026-05-04 16:50 28.39372 -81.29552 425 ft 135 kts
2026-05-04 16:51 28.41221 -81.29566 109 ft 126 kts
2026-05-04 16:51 28.41948 -81.29568 104 ft 81 kts
2026-05-04 16:51 28.42493 -81.29690 102 ft 19 kts 335°
2026-05-04 16:52 28.42714 -81.29703 101 ft 18 kts 358°
2026-05-04 16:52 28.42730 -81.29704 102 ft 0 kts 358°
2026-05-04 16:53 28.42734 -81.29704 102 ft 4 kts 358°
2026-05-04 16:53 28.42988 -81.29800 103 ft 15 kts 359°
2026-05-04 16:54 28.43092 -81.29801 104 ft 15 kts 359°
2026-05-04 16:55 28.43466 -81.29915 101 ft 16 kts 295°